| time (UTC) | temp F | wind direction | speed MPH | gust MPH | rain 1hr in | rain 24hr in | rain mn in | humidity % | barometer mb |
| 20260905091018 | 87 | 0 | 1.0 | 2.0 | 0.00 | 0.00 | 0.00 | 43 | 1025.7 |
| 20260905090018 | 86 | 113 | 2.0 | 5.0 | 0.00 | 0.00 | 0.00 | 43 | 1025.7 |
| 20260905085018 | 85 | 0 | 1.0 | 3.0 | 0.00 | 0.00 | 0.00 | 44 | 1025.6 |
| 20260905084018 | 84 | 90 | 1.0 | 3.0 | 0.00 | 0.00 | 0.00 | 45 | 1025.5 |
| 20260905083038 | 83 | 90 | 2.0 | 3.0 | 0.00 | 0.00 | 0.00 | 46 | 1025.3 |
| 20260905082018 | 82 | 90 | 2.0 | 6.0 | 0.00 | 0.00 | 0.00 | 46 | 1025.2 |
| 20260905081017 | 80 | 90 | 1.0 | 3.0 | 0.00 | 0.00 | 0.00 | 50 | 1025.0 |
| 20260905080017 | 78 | 45 | 4.0 | 6.0 | 0.00 | 0.00 | 0.00 | 51 | 1024.8 |
| 20260905075018 | 77 | 45 | 5.0 | 8.0 | 0.00 | 0.00 | 0.00 | 53 | 1024.8 |
| 20260905074037 | 76 | 45 | 6.0 | 9.0 | 0.00 | 0.00 | 0.00 | 54 | 1024.7 |
| 20260905073038 | 75 | 45 | 7.0 | 10.0 | 0.00 | 0.00 | 0.00 | 55 | 1024.6 |
| 20260905072018 | 75 | 45 | 6.0 | 9.0 | 0.00 | 0.00 | 0.00 | 55 | 1024.7 |
| 20260905071018 | 74 | 45 | 7.0 | 12.0 | 0.00 | 0.00 | 0.00 | 56 | 1024.6 |
| 20260905070037 | 74 | 68 | 6.0 | 10.0 | 0.00 | 0.00 | 0.00 | 56 | 1024.6 |
| 20260905065018 | 74 | 45 | 5.0 | 8.0 | 0.00 | 0.00 | 0.00 | 56 | 1024.6 |
| 20260905064018 | 73 | 45 | 5.0 | 8.0 | 0.00 | 0.00 | 0.00 | 56 | 1024.5 |
| 20260905063017 | 73 | 45 | 6.0 | 8.0 | 0.00 | 0.00 | 0.00 | 57 | 1024.2 |
| 20260905062017 | 72 | 45 | 5.0 | 9.0 | 0.00 | 0.00 | 0.00 | 58 | 1024.3 |
| 20260905061017 | 72 | 23 | 6.0 | 10.0 | 0.00 | 0.00 | 0.00 | 59 | 1024.2 |
| 20260905060037 | 71 | 23 | 6.0 | 9.0 | 0.00 | 0.00 | 0.00 | 60 | 1024.0 |
| 20260905055017 | 71 | 45 | 7.0 | 10.0 | 0.00 | 0.00 | 0.00 | 60 | 1024.0 |
| 20260905054017 | 71 | 45 | 7.0 | 9.0 | 0.00 | 0.00 | 0.00 | 60 | 1024.2 |
| 20260905053017 | 72 | 45 | 8.0 | 12.0 | 0.00 | 0.00 | 0.00 | 60 | 1024.1 |
| 20260905052017 | 73 | 45 | 7.0 | 12.0 | 0.00 | 0.00 | 0.00 | 58 | 1024.1 |
| 20260905051017 | 72 | 45 | 2.0 | 5.0 | 0.00 | 0.00 | 0.00 | 61 | 1024.3 |
| 20260905050017 | 72 | 45 | 6.0 | 8.0 | 0.00 | 0.00 | 0.00 | 60 | 1024.2 |
| 20260905045017 | 73 | 45 | 6.0 | 10.0 | 0.00 | 0.00 | 0.00 | 60 | 1024.2 |
| 20260905044017 | 72 | 45 | 6.0 | 10.0 | 0.00 | 0.00 | 0.00 | 60 | 1024.2 |
| 20260905043017 | 72 | 45 | 6.0 | 9.0 | 0.00 | 0.00 | 0.00 | 60 | 1024.1 |
| 20260905042037 | 72 | 45 | 6.0 | 9.0 | 0.00 | 0.00 | 0.00 | 61 | 1024.1 |
| 20260905041017 | 72 | 45 | 7.0 | 9.0 | 0.00 | 0.00 | 0.00 | 61 | 1024.2 |
| 20260905040037 | 73 | 45 | 5.0 | 8.0 | 0.00 | 0.00 | 0.00 | 61 | 1024.1 |
| 20260905035017 | 73 | 45 | 6.0 | 10.0 | 0.00 | 0.00 | 0.00 | 61 | 1024.1 |
| 20260905034017 | 73 | 45 | 8.0 | 11.0 | 0.00 | 0.00 | 0.00 | 61 | 1024.3 |
| 20260905033017 | 73 | 45 | 6.0 | 9.0 | 0.00 | 0.00 | 0.00 | 62 | 1024.2 |
| 20260905032017 | 73 | 45 | 7.0 | 11.0 | 0.00 | 0.00 | 0.00 | 63 | 1024.3 |
| 20260905031017 | 73 | 45 | 9.0 | 12.0 | 0.00 | 0.00 | 0.00 | 62 | 1024.2 |
| 20260905030037 | 74 | 68 | 4.0 | 10.0 | 0.00 | 0.00 | 0.00 | 61 | 1024.4 |
| 20260905025017 | 74 | 23 | 2.0 | 5.0 | 0.00 | 0.00 | 0.00 | 60 | 1024.3 |
| 20260905024017 | 74 | 45 | 4.0 | 7.0 | 0.00 | 0.00 | 0.00 | 61 | 1024.2 |
| 20260905023016 | 73 | 45 | 6.0 | 8.0 | 0.00 | 0.00 | 0.00 | 62 | 1024.2 |
| 20260905022017 | 73 | 45 | 6.0 | 9.0 | 0.00 | 0.00 | 0.00 | 63 | 1024.1 |
| 20260905021017 | 74 | 45 | 6.0 | 9.0 | 0.00 | 0.00 | 0.00 | 62 | 1024.2 |
| 20260905020017 | 73 | 45 | 7.0 | 9.0 | 0.00 | 0.00 | 0.00 | 65 | 1024.2 |
| 20260905015017 | 74 | 45 | 6.0 | 8.0 | 0.00 | 0.00 | 0.00 | 63 | 1024.2 |
| 20260905014037 | 75 | 45 | 6.0 | 9.0 | 0.00 | 0.00 | 0.00 | 62 | 1024.3 |
| 20260905013017 | 75 | 45 | 7.0 | 11.0 | 0.00 | 0.00 | 0.00 | 63 | 1024.3 |
| 20260905012024 | 75 | 45 | 6.0 | 8.0 | 0.00 | 0.00 | 0.00 | 63 | 1024.5 |
| 20260905011028 | 75 | 45 | 5.0 | 7.0 | 0.00 | 0.00 | 0.00 | 63 | 1024.2 |
| 20260905010028 | 75 | 45 | 5.0 | 7.0 | 0.00 | 0.00 | 0.00 | 63 | 1024.2 |
| 20260905005028 | 76 | 45 | 5.0 | 7.0 | 0.00 | 0.00 | 0.00 | 63 | 1024.4 |
| 20260905004028 | 76 | 23 | 2.0 | 5.0 | 0.00 | 0.00 | 0.00 | 63 | 1024.4 |
| 20260905003029 | 76 | 23 | 4.0 | 9.0 | 0.00 | 0.00 | 0.00 | 63 | 1024.4 |
| 20260905002028 | 76 | 23 | 5.0 | 9.0 | 0.00 | 0.00 | 0.00 | 63 | 1024.4 |
| 20260905001028 | 75 | 45 | 4.0 | 6.0 | 0.00 | 0.00 | 0.00 | 65 | 1024.3 |
| 20260905000028 | 75 | 45 | 5.0 | 8.0 | 0.00 | 0.00 | 0.00 | 66 | 1024.4 |
| 20260904235028 | 76 | 68 | 6.0 | 9.0 | 0.00 | 0.00 | 0.00 | 65 | 1024.4 |
| 20260904234029 | 76 | 45 | 6.0 | 10.0 | 0.00 | 0.00 | 0.00 | 64 | 1024.3 |
| 20260904233029 | 76 | 45 | 3.0 | 8.0 | 0.00 | 0.00 | 0.00 | 65 | 1024.2 |
| 20260904232029 | 77 | 23 | 2.0 | 5.0 | 0.00 | 0.00 | 0.00 | 64 | 1024.4 |
| 20260904231028 | 77 | 23 | 5.0 | 10.0 | 0.00 | 0.00 | 0.00 | 64 | 1024.2 |
| 20260904230028 | 77 | 45 | 6.0 | 9.0 | 0.00 | 0.00 | 0.00 | 64 | 1024.2 |
| 20260904225029 | 77 | 45 | 5.0 | 8.0 | 0.00 | 0.00 | 0.00 | 65 | 1024.1 |
| 20260904224028 | 77 | 45 | 6.0 | 9.0 | 0.00 | 0.00 | 0.00 | 65 | 1024.0 |
| 20260904223028 | 77 | 45 | 5.0 | 7.0 | 0.00 | 0.00 | 0.00 | 64 | 1024.0 |
| 20260904222028 | 78 | 45 | 3.0 | 7.0 | 0.00 | 0.00 | 0.00 | 64 | 1024.2 |
| 20260904221028 | 78 | 23 | 5.0 | 8.0 | 0.00 | 0.00 | 0.00 | 63 | 1024.0 |
| 20260904220028 | 78 | 45 | 6.0 | 9.0 | 0.00 | 0.00 | 0.00 | 64 | 1023.9 |
| 20260904215028 | 79 | 68 | 6.0 | 9.0 | 0.00 | 0.00 | 0.00 | 63 | 1024.0 |
| 20260904214028 | 80 | 23 | 6.0 | 9.0 | 0.00 | 0.00 | 0.00 | 62 | 1024.2 |
| 20260904213028 | 80 | 23 | 6.0 | 10.0 | 0.00 | 0.00 | 0.00 | 61 | 1024.2 |
| 20260904212028 | 80 | 0 | 5.0 | 7.0 | 0.00 | 0.00 | 0.00 | 62 | 1024.3 |
| 20260904211029 | 80 | 0 | 4.0 | 7.0 | 0.00 | 0.00 | 0.00 | 61 | 1024.2 |
| 20260904210028 | 80 | 23 | 4.0 | 7.0 | 0.00 | 0.00 | 0.00 | 61 | 1024.2 |
| 20260904205048 | 81 | 338 | 6.0 | 9.0 | 0.00 | 0.00 | 0.00 | 61 | 1024.3 |
| 20260904204048 | 81 | 338 | 6.0 | 9.0 | 0.00 | 0.00 | 0.00 | 61 | 1024.1 |
| 20260904203028 | 81 | 338 | 5.0 | 8.0 | 0.00 | 0.00 | 0.00 | 61 | 1024.2 |
| 20260904202028 | 81 | 338 | 5.0 | 8.0 | 0.00 | 0.00 | 0.00 | 60 | 1024.1 |
| 20260904201028 | 82 | 338 | 4.0 | 7.0 | 0.00 | 0.00 | 0.00 | 60 | 1023.9 |
| 20260904200028 | 82 | 338 | 4.0 | 6.0 | 0.00 | 0.00 | 0.00 | 59 | 1023.9 |
| 20260904195048 | 83 | 315 | 3.0 | 5.0 | 0.00 | 0.00 | 0.00 | 58 | 1023.8 |
| 20260904194028 | 84 | 180 | 1.0 | 3.0 | 0.00 | 0.00 | 0.00 | 57 | 1023.7 |
| 20260904193028 | 84 | 248 | 3.0 | 5.0 | 0.00 | 0.00 | 0.00 | 56 | 1023.6 |
| 20260904192028 | 85 | 203 | 3.0 | 6.0 | 0.00 | 0.00 | 0.00 | 55 | 1023.5 |
| 20260904191028 | 85 | 203 | 3.0 | 7.0 | 0.00 | 0.00 | 0.00 | 55 | 1023.2 |
| 20260904190048 | 86 | 248 | 3.0 | 6.0 | 0.00 | 0.00 | 0.00 | 53 | 1023.0 |
| 20260904185108 | 86 | 248 | 5.0 | 9.0 | 0.00 | 0.00 | 0.00 | 52 | 1022.8 |
| 20260904184108 | 86 | 248 | 4.0 | 7.0 | 0.00 | 0.00 | 0.00 | 52 | 1022.7 |
| 20260904183029 | 87 | 248 | 4.0 | 8.0 | 0.00 | 0.00 | 0.00 | 51 | 1022.7 |
| 20260904182029 | 87 | 248 | 4.0 | 7.0 | 0.00 | 0.00 | 0.00 | 50 | 1022.6 |
| 20260904181030 | 88 | 225 | 4.0 | 9.0 | 0.00 | 0.00 | 0.00 | 49 | 1022.5 |
| 20260904180050 | 88 | 203 | 6.0 | 11.0 | 0.00 | 0.00 | 0.00 | 48 | 1022.4 |
| 20260904175030 | 89 | 203 | 6.0 | 11.0 | 0.00 | 0.00 | 0.00 | 47 | 1022.2 |
| 20260904174029 | 90 | 158 | 6.0 | 13.0 | 0.00 | 0.00 | 0.00 | 46 | 1022.2 |
| 20260904173029 | 91 | 135 | 5.0 | 11.0 | 0.00 | 0.00 | 0.00 | 45 | 1022.2 |
| 20260904172029 | 92 | 180 | 5.0 | 10.0 | 0.00 | 0.00 | 0.00 | 43 | 1021.9 |
| 20260904171029 | 93 | 225 | 3.0 | 12.0 | 0.00 | 0.00 | 0.00 | 40 | 1021.9 |
| 20260904170029 | 93 | 270 | 3.0 | 6.0 | 0.00 | 0.00 | 0.00 | 32 | 1021.5 |
| 20260904165029 | 94 | 248 | 4.0 | 7.0 | 0.00 | 0.00 | 0.00 | 31 | 1021.4 |
| 20260904164029 | 95 | 225 | 4.0 | 7.0 | 0.00 | 0.00 | 0.00 | 30 | 1021.4 |
| 20260904163029 | 95 | 248 | 4.0 | 8.0 | 0.00 | 0.00 | 0.00 | 29 | 1021.3 |
| 20260904162029 | 95 | 203 | 5.0 | 9.0 | 0.00 | 0.00 | 0.00 | 29 | 1021.3 |
| 20260904161029 | 95 | 225 | 4.0 | 8.0 | 0.00 | 0.00 | 0.00 | 28 | 1021.3 |
| 20260904160029 | 95 | 203 | 6.0 | 12.0 | 0.00 | 0.00 | 0.00 | 28 | 1021.4 |
| 20260904155029 | 96 | 203 | 5.0 | 9.0 | 0.00 | 0.00 | 0.00 | 27 | 1021.3 |
| 20260904154029 | 97 | 135 | 2.0 | 5.0 | 0.00 | 0.00 | 0.00 | 26 | 1021.5 |
| 20260904153029 | 96 | 135 | 3.0 | 7.0 | 0.00 | 0.00 | 0.00 | 27 | 1021.6 |
| 20260904152029 | 96 | 270 | 3.0 | 7.0 | 0.00 | 0.00 | 0.00 | 27 | 1021.6 |
| 20260904151030 | 96 | 225 | 3.0 | 8.0 | 0.00 | 0.00 | 0.00 | 27 | 1021.6 |
| 20260904150029 | 96 | 135 | 3.0 | 8.0 | 0.00 | 0.00 | 0.00 | 26 | 1021.6 |
| 20260904145051 | 96 | 203 | 2.0 | 8.0 | 0.00 | 0.00 | 0.00 | 26 | 1021.7 |
| 20260904144029 | 95 | 135 | 4.0 | 10.0 | 0.00 | 0.00 | 0.00 | 26 | 1021.7 |
| 20260904143029 | 95 | 135 | 5.0 | 13.0 | 0.00 | 0.00 | 0.00 | 26 | 1021.8 |
| 20260904142029 | 95 | 135 | 4.0 | 10.0 | 0.00 | 0.00 | 0.00 | 26 | 1021.7 |
| 20260904141029 | 94 | 113 | 6.0 | 15.0 | 0.00 | 0.00 | 0.00 | 27 | 1021.8 |
| 20260904140029 | 94 | 135 | 6.0 | 13.0 | 0.00 | 0.00 | 0.00 | 27 | 1021.9 |
| 20260904135029 | 95 | 135 | 4.0 | 8.0 | 0.00 | 0.00 | 0.00 | 26 | 1022.0 |
| 20260904134029 | 95 | 158 | 5.0 | 10.0 | 0.00 | 0.00 | 0.00 | 26 | 1022.2 |
| 20260904133029 | 94 | 135 | 6.0 | 12.0 | 0.00 | 0.00 | 0.00 | 27 | 1022.0 |
| 20260904132029 | 95 | 135 | 6.0 | 15.0 | 0.00 | 0.00 | 0.00 | 26 | 1022.2 |
| 20260904131029 | 95 | 158 | 4.0 | 8.0 | 0.00 | 0.00 | 0.00 | 27 | 1022.3 |
| 20260904130029 | 94 | 248 | 3.0 | 8.0 | 0.00 | 0.00 | 0.00 | 30 | 1022.1 |
| 20260904125029 | 93 | 135 | 3.0 | 9.0 | 0.00 | 0.00 | 0.00 | 31 | 1022.3 |
| 20260904124109 | 92 | 68 | 4.0 | 11.0 | 0.00 | 0.00 | 0.00 | 35 | 1022.4 |
| 20260904123049 | 92 | 113 | 3.0 | 8.0 | 0.00 | 0.00 | 0.00 | 37 | 1022.6 |
| 20260904122028 | 92 | 135 | 3.0 | 9.0 | 0.00 | 0.00 | 0.00 | 38 | 1022.8 |
| 20260904121049 | 91 | 158 | 3.0 | 9.0 | 0.00 | 0.00 | 0.00 | 40 | 1022.8 |
| 20260904120028 | 90 | 113 | 4.0 | 9.0 | 0.00 | 0.00 | 0.00 | 41 | 1022.8 |
| 20260904115029 | 90 | 158 | 2.0 | 5.0 | 0.00 | 0.00 | 0.00 | 41 | 1022.8 |
| 20260904114029 | 90 | 158 | 2.0 | 5.0 | 0.00 | 0.00 | 0.00 | 43 | 1023.1 |
| 20260904113029 | 89 | 180 | 2.0 | 5.0 | 0.00 | 0.00 | 0.00 | 45 | 1023.0 |
| 20260904112029 | 88 | 135 | 2.0 | 7.0 | 0.00 | 0.00 | 0.00 | 46 | 1023.2 |
| 20260904111029 | 88 | 158 | 3.0 | 7.0 | 0.00 | 0.00 | 0.00 | 47 | 1023.0 |
| 20260904110049 | 87 | 135 | 4.0 | 9.0 | 0.00 | 0.00 | 0.00 | 48 | 1023.1 |
| 20260904105029 | 86 | 158 | 2.0 | 6.0 | 0.00 | 0.00 | 0.00 | 50 | 1023.2 |
| 20260904104029 | 85 | 180 | 3.0 | 6.0 | 0.00 | 0.00 | 0.00 | 51 | 1023.3 |
| 20260904103029 | 85 | 180 | 3.0 | 6.0 | 0.00 | 0.00 | 0.00 | 52 | 1023.4 |
| 20260904102029 | 85 | 180 | 2.0 | 5.0 | 0.00 | 0.00 | 0.00 | 51 | 1023.5 |
| 20260904101029 | 84 | 135 | 2.0 | 8.0 | 0.00 | 0.00 | 0.00 | 52 | 1023.6 |
| 20260904100049 | 84 | 135 | 2.0 | 5.0 | 0.00 | 0.00 | 0.00 | 52 | 1023.7 |
| 20260904095029 | 84 | 90 | 2.0 | 5.0 | 0.00 | 0.00 | 0.00 | 53 | 1023.7 |
| 20260904094029 | 83 | 158 | 2.0 | 6.0 | 0.00 | 0.00 | 0.00 | 55 | 1023.6 |
| 20260904093049 | 82 | 180 | 3.0 | 6.0 | 0.00 | 0.00 | 0.00 | 56 | 1023.6 |
| 20260904092029 | 82 | 180 | 2.0 | 5.0 | 0.00 | 0.00 | 0.00 | 57 | 1023.6 |